{"data":{"norad_id":66891,"epoch":"2026-05-24T23:16:29.082720Z","epoch_age_seconds":71676,"freshness":"FRESH","line1":"1 66891U 25283P   26144.96978105  .00009875  00000+0  34502-3 0  9997","line2":"2 66891  53.1581  29.8036 0000897  79.9731 280.1371 15.30204844 27522","mean_motion":15.30204844,"eccentricity":8.97e-5,"inclination_deg":53.1581,"raan_deg":29.8036,"arg_perigee_deg":79.9731,"mean_anomaly_deg":280.1371,"bstar":0.00034502,"rev_number":2752,"period_min":94.105047807573,"perigee_km":474.58586176334,"apogee_km":475.81535052989,"semimajor_km":6853.3376061466,"source":"CELESTRAK","updated_at":"2026-05-25T13:38:21.380686Z"}}